AJ1L Weather Reports


time (UTC)temp
F
wind
direction
speed
knots
gust
knots
rain 1hr
in
rain 24hr
in
rain mn
in
humidity
%
barometer
mb
20260507212400 63 330 4.3 10.4 0.00 0.32 0.28 30 1004.7
20260507205039 64 334 4.3 13.9 0.00 0.32 0.28 29 1004.6
20260507203359 64 328 3.5 7.0 0.00 0.32 0.28 30 1004.5
20260507201720 65 310 4.3 11.3 0.00 0.32 0.28 28 1004.6
20260507200040 64 305 4.3 9.6 0.00 0.33 0.28 28 1004.6
20260507194359 64 293 5.2 11.3 0.00 0.34 0.28 32 1004.8
20260507191044 63 313 5.2 10.4 0.00 0.34 0.28 34 1005.0
20260507185359 65 281 4.3 9.6 0.00 0.34 0.28 36 1005.3
20260507183720 64 280 5.2 12.2 0.00 0.34 0.28 36 1005.5
20260507182039 64 275 3.5 9.6 0.00 0.34 0.28 37 1005.6
20260507180359 64 288 3.5 10.4 0.00 0.34 0.28 38 1005.7
20260507173039 64 276 4.3 12.2 0.00 0.34 0.28 44 1005.7
20260507171359 62 274 5.2 12.2 0.00 0.34 0.28 47 1006.0
20260507165721 62 256 2.6 7.0 0.00 0.34 0.28 51 1006.1
20260507164039 62 255 4.3 7.8 0.00 0.34 0.28 53 1006.3
20260507162359 60 261 3.5 10.4 0.00 0.34 0.28 56 1006.5
20260507160719 60 286 2.6 7.8 0.00 0.34 0.28 56 1006.7
20260507153406 60 278 2.6 6.1 0.00 0.34 0.28 57 1007.1
20260507151719 60 266 2.6 7.8 0.00 0.34 0.28 56 1007.2
20260507144359 57 306 1.7 7.8 0.00 0.34 0.28 67 1007.4
20260507141039 56 291 3.5 9.6 0.00 0.34 0.28 70 1007.6
20260507135400 54 306 4.3 10.4 0.00 0.34 0.28 79 1007.5
20260507132039 51 300 3.5 10.4 0.00 0.34 0.28 91 1007.7
20260507130359 50 270 1.7 6.1 0.00 0.34 0.28 93 1007.8
20260507124719 50 281 1.7 3.5 0.00 0.34 0.28 94 1007.8
20260507123046 49 260 1.7 2.6 0.01 0.34 0.28 94 1008.1
20260507121359 49 267 0.9 2.6 0.02 0.34 0.28 94 1007.7
20260507114039 48 215 0.9 2.6 0.02 0.33 0.27 93 1007.6
20260507105040 48 314 1.7 7.0 0.03 0.31 0.25 93 1007.2
20260507103404 48 299 2.6 6.1 0.03 0.31 0.25 93 1007.5
20260507101722 49 284 2.6 7.0 0.03 0.30 0.24 93 1007.8
20260507100039 49 288 0.9 2.6 0.02 0.29 0.23 94 1007.2
20260507094358 50 287 1.7 3.5 0.02 0.28 0.22 94 1007.0
20260507091038 50 279 1.7 5.2 0.08 0.27 0.21 93 1006.9
20260507085358 51 298 2.6 7.8 0.12 0.27 0.21 93 1006.7
20260507083718 52 297 1.7 6.1 0.20 0.26 0.20 93 1006.5
20260507082039 53 291 2.6 7.0 0.17 0.23 0.17 93 1006.7
20260507080358 54 273 1.7 8.7 0.11 0.17 0.11 92 1006.7
20260507074720 54 289 3.5 7.0 0.07 0.13 0.07 90 1006.5
20260507073039 55 295 1.7 6.1 0.00 0.06 0.00 91 1005.5
20260507071400 55 300 1.7 6.1 0.00 0.06 0.00 94 1005.5
20260507065721 56 272 0.9 6.1 0.00 0.06 0.00 95 1005.8
20260507064038 56 289 0.9 3.5 0.00 0.06 0.00 95 1005.6
20260507062358 56 240 0.0 0.9 0.00 0.06 0.00 95 1005.6
20260507060719 56 258 1.7 4.3 0.00 0.06 0.00 95 1005.9
20260507055039 56 272 0.9 2.6 0.00 0.06 0.00 95 1006.0
20260507053359 56 281 0.9 3.5 0.00 0.06 0.00 95 1006.3
20260507051720 56 247 0.9 2.6 0.00 0.06 0.00 95 1006.2
20260507050039 56 242 0.9 3.5 0.00 0.06 0.00 95 1006.3
20260507044358 56 248 0.9 2.6 0.00 0.06 0.00 95 1006.4
20260507041038 56 262 0.9 2.6 0.00 0.06 0.00 95 1006.3
20260507035359 56 242 1.7 4.3 0.00 0.06 0.06 95 1006.4
20260507033718 56 251 2.6 7.0 0.00 0.06 0.06 95 1006.7
20260507032038 55 242 2.6 5.2 0.00 0.06 0.06 95 1006.4
20260507030359 55 239 3.5 7.0 0.00 0.06 0.06 95 1006.2
20260507024718 55 244 2.6 7.0 0.00 0.06 0.06 95 1006.2
20260507021358 55 211 2.6 6.1 0.00 0.06 0.06 94 1006.1
20260507015718 56 223 1.7 6.1 0.00 0.06 0.06 94 1006.6
20260507014038 56 230 2.6 7.0 0.00 0.06 0.06 94 1006.7
20260507012358 56 225 2.6 7.8 0.00 0.06 0.06 94 1006.8
20260507010718 56 241 3.5 7.8 0.00 0.06 0.06 94 1006.9
20260507005041 56 247 2.6 7.8 0.01 0.06 0.06 94 1006.9
20260507003359 56 243 3.5 9.6 0.02 0.06 0.06 94 1006.9
20260507001718 56 225 3.5 8.7 0.02 0.06 0.06 94 1006.7
20260507000038 56 235 3.5 10.4 0.01 0.05 0.05 94 1006.6
20260506231038 56 234 2.6 10.4 0.02 0.04 0.04 93 1007.0
20260506225358 56 209 2.6 7.0 0.02 0.04 0.04 92 1006.7
20260506223720 57 214 2.6 7.8 0.02 0.04 0.04 92 1006.8
20260506222041 57 209 2.6 7.8 0.01 0.03 0.03 91 1007.2
20260506214720 58 232 3.5 10.4 0.00 0.02 0.02 90 1007.4